Cushing, OK

7:38 AM CST on December 05, 2016 (GMT -0600)
Cushing Municipal

Weather History for KCUH - July, 2013

Change the Weather History Date:

Thursday, July 18, 2013

  Actual Average Record
Temperature  
Mean Temperature 80 °F -  
Max Temperature 93 °F 92 °F 114 °F (1954)
Min Temperature 68 °F 71 °F 59 °F (2014)
Cooling Degree Days 16    
Growing Degree Days 30 (Base 50)    
Moisture  
Dew Point 72 °F    
Average Humidity 78    
Maximum Humidity 100    
Minimum Humidity 52    
Precipitation  
Precipitation 0.00 in - - ()
Sea Level Pressure  
Sea Level Pressure 30.15 in    
Wind  
Wind Speed 2 mph (SSW)    
Max Wind Speed 9 mph    
Max Gust Speed -    
Visibility 10 miles    
Events      
Averages and records for this station are not official NWS values.
T = Trace of Precipitation, MM = Missing Value Source: NWS Daily Summary

Daily Weather History Graph

Daily Weather History Graph

Search for Another Location

Airport or City:

Trip Planner

Search our weather history database for the weather conditions in past years. The results will help you decide how hot, cold, wet, or windy it might be!

Date:

Astronomy

Jul. 18, 2013 Rise Set
Actual Time 6:24 AM CDT 8:42 PM CDT
Civil Twilight 5:55 AM CDT 9:11 PM CDT
Nautical Twilight 5:19 AM CDT 9:47 PM CDT
Astronomical Twilight 4:39 AM CDT 10:26 PM CDT
Moon 4:41 PM CDT (7/18) 2:13 AM CDT (7/18)
Length of Visible Light 15h 16m
Length of Day
14h 17m
Waxing Gibbous, 77% of the Moon is Illuminated
Jul 18
Waxing Gibbous
Jul 22
Full
Jul 29
Last Quarter
Aug 6
New
Aug 14
First Quarter

Hourly Weather History & Observations

Time (CDT) Temp. Heat Index Dew Point Humidity Pressure Visibility Wind Dir Wind Speed Gust Speed Precip Events Conditions
12:15 AM 71.6 °F - 69.8 °F 94% 30.22 in 10.0 mi Calm Calm - N/A   Clear
12:35 AM 71.6 °F - 69.8 °F 94% 30.22 in 10.0 mi Calm Calm - N/A   Clear
12:55 AM 71.6 °F - 69.8 °F 94% 30.22 in 10.0 mi Calm Calm - N/A   Clear
1:15 AM 71.6 °F - 71.6 °F 100% 30.21 in 10.0 mi Calm Calm - N/A   Clear
1:35 AM 69.8 °F - 69.8 °F 100% 30.21 in 10.0 mi Calm Calm - N/A   Clear
1:55 AM 69.8 °F - 69.8 °F 100% 30.20 in 10.0 mi Calm Calm - N/A   Clear
2:15 AM 69.8 °F - 69.8 °F 100% 30.20 in 10.0 mi Calm Calm - N/A   Clear
2:35 AM 69.8 °F - 69.8 °F 100% 30.20 in 10.0 mi Calm Calm - N/A   Clear
2:55 AM 69.8 °F - 68.0 °F 94% 30.20 in 10.0 mi Calm Calm - N/A   Clear
3:15 AM 69.8 °F - 69.8 °F 100% 30.20 in 10.0 mi Calm Calm - N/A   Clear
3:35 AM 69.8 °F - 68.0 °F 94% 30.20 in 10.0 mi Calm Calm - N/A   Clear
3:55 AM 69.8 °F - 68.0 °F 94% 30.20 in 10.0 mi Calm Calm - N/A   Clear
4:15 AM 69.8 °F - 69.8 °F 100% 30.20 in 10.0 mi Calm Calm - N/A   Clear
4:35 AM 68.0 °F - 68.0 °F 100% 30.19 in 10.0 mi Calm Calm - N/A   Clear
4:55 AM 68.0 °F - 68.0 °F 100% 30.19 in 10.0 mi Calm Calm - N/A   Clear
5:15 AM 68.0 °F - 68.0 °F 100% 30.19 in 10.0 mi Calm Calm - N/A   Clear
5:35 AM 68.0 °F - 68.0 °F 100% 30.19 in 10.0 mi Calm Calm - N/A   Clear
5:55 AM 68.0 °F - 68.0 °F 100% 30.19 in 10.0 mi Calm Calm - N/A   Clear
6:15 AM 68.0 °F - 68.0 °F 100% 30.20 in 10.0 mi Calm Calm - N/A   Clear
6:35 AM 68.0 °F - 68.0 °F 100% 30.20 in 10.0 mi Calm Calm - N/A   Clear
6:55 AM 69.8 °F - 69.8 °F 100% 30.20 in 10.0 mi Calm Calm - N/A   Clear
7:15 AM 71.6 °F - 71.6 °F 100% 30.20 in 10.0 mi Calm Calm - N/A   Clear
7:35 AM 73.4 °F - 73.4 °F 100% 30.21 in 10.0 mi Calm Calm - N/A   Clear
7:55 AM 75.2 °F - 73.4 °F 94% 30.22 in 10.0 mi Calm Calm - N/A   Clear
8:15 AM 77.0 °F - 73.4 °F 89% 30.22 in 10.0 mi Calm Calm - N/A   Clear
8:35 AM 78.8 °F - 73.4 °F 83% 30.22 in 10.0 mi Calm Calm - N/A   Clear
8:55 AM 80.6 °F 86.2 °F 75.2 °F 84% 30.22 in 10.0 mi Calm Calm - N/A   Clear
9:15 AM 80.6 °F 86.2 °F 75.2 °F 84% 30.22 in 10.0 mi Calm Calm - N/A   Clear
9:35 AM 82.4 °F 89.5 °F 75.2 °F 79% 30.22 in 10.0 mi Calm Calm - N/A   Clear
9:55 AM 84.2 °F 92.3 °F 75.2 °F 74% 30.20 in 10.0 mi SSW 4.6 mph - N/A   Clear
10:15 AM 86.0 °F 95.1 °F 75.2 °F 70% 30.20 in 10.0 mi South 5.8 mph - N/A   Clear
10:35 AM 86.0 °F 93.4 °F 73.4 °F 66% 30.20 in 10.0 mi SSW 4.6 mph - N/A   Clear
10:55 AM 86.0 °F 93.4 °F 73.4 °F 66% 30.20 in 10.0 mi SSW 4.6 mph - N/A   Clear
11:15 AM 86.0 °F 93.4 °F 73.4 °F 66% 30.20 in 10.0 mi SW 5.8 mph - N/A   Scattered Clouds
11:35 AM 86.0 °F 91.8 °F 71.6 °F 62% 30.19 in 10.0 mi South 4.6 mph - N/A   Clear
11:55 AM 87.8 °F 95.6 °F 73.4 °F 62% 30.19 in 10.0 mi South 5.8 mph - N/A   Clear
12:15 PM 87.8 °F 93.8 °F 71.6 °F 58% 30.19 in 10.0 mi SW 9.2 mph - N/A   Clear
12:35 PM 87.8 °F 93.8 °F 71.6 °F 58% 30.18 in 10.0 mi SSW 8.1 mph - N/A   Scattered Clouds
12:55 PM 89.6 °F 96.2 °F 71.6 °F 55% 30.18 in 10.0 mi SSW 8.1 mph - N/A   Clear
1:15 PM 89.6 °F 96.2 °F 71.6 °F 55% 30.18 in 10.0 mi South 5.8 mph - N/A   Clear
1:35 PM 89.6 °F 98.2 °F 73.4 °F 59% 30.17 in 10.0 mi SSW 5.8 mph - N/A   Clear
1:55 PM 89.6 °F 98.2 °F 73.4 °F 59% 30.16 in 10.0 mi SSW 8.1 mph - N/A   Clear
2:15 PM 89.6 °F 98.2 °F 73.4 °F 59% 30.15 in 10.0 mi WSW 8.1 mph - N/A   Scattered Clouds
2:35 PM 89.6 °F 96.2 °F 71.6 °F 55% 30.14 in 10.0 mi WSW 5.8 mph - N/A   Scattered Clouds
2:55 PM 89.6 °F 98.2 °F 73.4 °F 59% 30.13 in 10.0 mi SSW 5.8 mph - N/A   Clear
3:15 PM 91.4 °F 100.1 °F 73.4 °F 55% 30.12 in 10.0 mi SW 8.1 mph - N/A   Clear
3:35 PM 91.4 °F 98.4 °F 71.6 °F 52% 30.11 in 10.0 mi South 3.5 mph - N/A   Clear
3:55 PM 91.4 °F 98.4 °F 71.6 °F 52% 30.10 in 10.0 mi SSE 5.8 mph - N/A   Clear
4:15 PM 91.4 °F 100.1 °F 73.4 °F 55% 30.09 in 10.0 mi SW 9.2 mph - N/A   Clear
5:15 PM 93.2 °F 102.4 °F 73.4 °F 52% 30.07 in 10.0 mi SW 5.8 mph - N/A   Scattered Clouds
5:35 PM 91.4 °F 98.4 °F 71.6 °F 52% 30.06 in 10.0 mi South 4.6 mph - N/A   Clear
5:55 PM 91.4 °F 100.1 °F 73.4 °F 55% 30.06 in 10.0 mi SSW 5.8 mph - N/A   Clear
6:15 PM 91.4 °F 100.1 °F 73.4 °F 55% 30.05 in 10.0 mi SSW 4.6 mph - N/A   Scattered Clouds
6:35 PM 91.4 °F 100.1 °F 73.4 °F 55% 30.05 in 10.0 mi WSW 5.8 mph - N/A   Clear
6:55 PM 89.6 °F 96.2 °F 71.6 °F 55% 30.04 in 10.0 mi SW 4.6 mph - N/A   Clear
7:15 PM 89.6 °F 98.2 °F 73.4 °F 59% 30.04 in 10.0 mi SW 3.5 mph - N/A   Clear
7:35 PM 89.6 °F 98.2 °F 73.4 °F 59% 30.05 in 10.0 mi Calm Calm - N/A   Clear
7:55 PM 87.8 °F 95.6 °F 73.4 °F 62% 30.05 in 10.0 mi Calm Calm - N/A   Clear
8:15 PM 87.8 °F 97.6 °F 75.2 °F 66% 30.05 in 10.0 mi Calm Calm - N/A   Clear
8:35 PM 86.0 °F 93.4 °F 73.4 °F 66% 30.05 in 10.0 mi Calm Calm - N/A   Clear
8:55 PM 82.4 °F 89.5 °F 75.2 °F 79% 30.05 in 10.0 mi Calm Calm - N/A   Clear
9:15 PM 80.6 °F 85.4 °F 73.4 °F 79% 30.05 in 10.0 mi Calm Calm - N/A   Clear
9:35 PM 78.8 °F - 73.4 °F 83% 30.06 in 10.0 mi Calm Calm - N/A   Clear
9:55 PM 77.0 °F - 71.6 °F 83% 30.07 in 10.0 mi Calm Calm - N/A   Clear
10:15 PM 77.0 °F - 71.6 °F 83% 30.07 in 10.0 mi Calm Calm - N/A   Clear
10:35 PM 77.0 °F - 71.6 °F 83% 30.07 in 10.0 mi Calm Calm - N/A   Clear
10:55 PM 75.2 °F - 73.4 °F 94% 30.07 in 10.0 mi Calm Calm - N/A   Clear
11:15 PM 73.4 °F - 71.6 °F 94% 30.07 in 10.0 mi Calm Calm - N/A   Clear
11:35 PM 73.4 °F - 71.6 °F 94% 30.07 in 10.0 mi Calm Calm - N/A   Clear
11:55 PM 73.4 °F - 71.6 °F 94% 30.07 in 10.0 mi Calm Calm - N/A   Clear